Home   Weather   Stillwater   Past weeks
Flag for USA

Past Weather in Stillwater, Minnesota, USA — Yesterday and Last 2 Weeks

Now
51 °F

Sunny.


Feels Like: 48 °F
Forecast: 52 / 24 °F
Wind: 8 mph from Southeast

Location: St. Paul Downtown Holman Field

Current Time: Mar 23, 2019 at 4:04:51 pm

Latest Report: Mar 23, 2019 at 2:53 pm


Visibility: 10 mi

Pressure: 30.18 "Hg

Humidity: 41%

Dew Point: 28 °F

Location of StillwaterLocation

Past Weather in Stillwater — Graph

°F

Stillwater Temperature Yesterday

Maximum temperature yesterday: 48 °F (at 2:53 pm)
Minimum temperature yesterday: 27 °F (at 5:53 am)
Average temperature yesterday: 39 °F

High & Low Weather Summary for the Past Weeks

 TemperatureHumidityPressure
High51 °F (Mar 23, 1:53 pm)100% (Mar 13, 3:00 am)30.44 "Hg (Mar 13, 3:00 am)
Low11 °F (Mar 11, 6:53 am)36% (Mar 22, 4:53 pm)29.23 "Hg (Mar 14, 11:53 am)
Average34 °F74%30.04 "Hg
* Reported Mar 8 1:53 pm — Mar 23 2:53 pm, Stillwater. Weather by CustomWeather, © 2019

Note: Actual official high and low records may vary slightly from our data, if they occured in-between our weather recording intervals... More about our weather records

Advertising

Stillwater Weather History for the Previous 24 Hours

Scroll right to see more
 ConditionsComfort  
Time TempWeatherWind HumidityBarometerVisibility
2:53 pm
Sat, Mar 23
51 °FSunny.8 mph41%30.18 "Hg10 mi
1:53 pm51 °FSunny.5 mph38%30.21 "Hg10 mi
12:53 pm47 °FSunny.8 mph48%30.23 "Hg10 mi
11:53 am45 °FSunny.7 mph49%30.23 "Hg10 mi
10:53 am42 °FSunny.5 mph55%30.25 "Hg10 mi
9:53 am36 °FSunny.3 mph67%30.26 "Hg10 mi
8:53 am31 °FSunny.5 mph79%30.28 "Hg10 mi
7:53 am28 °FSunny.3 mph85%30.28 "Hg10 mi
6:53 am26 °FClear.5 mph84%30.27 "Hg10 mi
5:53 am26 °FClear.3 mph84%30.26 "Hg10 mi
4:53 am26 °FClear.No wind84%30.25 "Hg10 mi
3:53 am26 °FClear.No wind84%30.25 "Hg10 mi
2:53 am28 °FClear.No wind78%30.27 "Hg10 mi
1:53 am30 °FClear.No wind75%30.25 "Hg10 mi
12:53 am30 °FClear.No wind75%30.26 "Hg10 mi
11:53 pm
Fri, Mar 22
32 °FClear.No wind75%30.26 "Hg10 mi
10:53 pm34 °FClear.No wind73%30.26 "Hg10 mi
9:53 pm35 °FClear.No wind61%30.26 "Hg10 mi
8:53 pm38 °FClear.No wind53%30.24 "Hg10 mi
7:53 pm42 °FClear.3 mph45%30.24 "Hg10 mi
6:53 pm45 °FSunny.8 mph44%30.24 "Hg10 mi
5:53 pm47 °FSunny.6 mph39%30.24 "Hg10 mi
4:53 pm48 °FSunny.5 mph36%30.24 "Hg10 mi
Weather by CustomWeather, © 2019

See weather overview